Flag for Russia Weather past 2 weeks in Samara, Russia

Now
25 °F

Clear.


Feels Like: 16 °F
Forecast: 9 / 27 °F
Wind: 8 mph from Southeast

Location: Samara

Current Time: Mar 29, 2015 at 9:56:08 PM

Latest Report: Mar 29, 2015 at 9:30 PM


Visibility: 10 mi

Pressure: 30.80 "Hg

Humidity: 63%

Dew point: 14 °F

Location of SamaraLocation

Historic Weather in Samara — Graph

°F

Samara temperature yesterday

Maximum temperature yesterday: 34 °F (at 1:00 PM)
Minimum temperature yesterday: 16 °F (at 5:30 AM)
Average temperature yesterday: 26 °F

Past Weeks' High & Low Weather Summary

 TemperatureHumidityPressure
High46 °F (Mar 19, 1:30 PM)100% (Mar 22, 4:00 AM)30.89 "Hg (Mar 22, 4:00 AM)
Low14 °F (Mar 24, 7:00 AM)32% (Mar 28, 1:30 PM)29.56 "Hg (Mar 22, 10:00 PM)
Average30 °F66%30.34 "Hg
* Reported Mar 14 8:00 PM — Mar 29 8:30 PM, Samara, Weather by CustomWeather, © 2015

Note: Actual official high and low records may vary slightly from our data, if they occured in-between our weather recording intervals... More about our weather records

Advertising

Samara weather history for previous 24 hours

 ConditionsComfort  
Time TempWeatherWind HumidityBarometerVisibility
8:30 PM
Sun, Mar 29
25 °FClear.8 mph63%30.80 "Hg10 mi
8:00 PM25 °FSunny.10 mph63%30.80 "Hg10 mi
7:30 PM27 °FSunny.10 mph59%30.80 "Hg10 mi
7:00 PM27 °FSunny.10 mph59%30.80 "Hg10 mi
6:30 PM28 °FSunny.13 mph55%30.80 "Hg10 mi
6:00 PM28 °FSunny.13 mph55%30.80 "Hg10 mi
5:30 PM30 °FSunny.13 mph55%30.83 "Hg10 mi
5:00 PM30 °FSunny.10 mph55%30.83 "Hg10 mi
4:30 PM30 °FSunny.10 mph55%30.83 "Hg10 mi
4:00 PM30 °FSunny.10 mph51%30.86 "Hg10 mi
3:30 PM30 °FSunny.10 mph47%30.86 "Hg10 mi
3:00 PM30 °FSunny.13 mph47%30.89 "Hg10 mi
2:30 PM30 °FSunny.10 mph43%30.89 "Hg10 mi
2:00 PM30 °FPassing clouds.10 mph40%30.89 "HgN/A
1:30 PM30 °FPassing clouds.13 mph43%30.89 "HgN/A
1:00 PM30 °FSunny.13 mph43%30.89 "Hg10 mi
12:30 PM30 °FSunny.13 mph40%30.89 "Hg10 mi
12:00 PM30 °FSunny.13 mph43%30.89 "Hg10 mi
11:30 AM28 °FSunny.13 mph47%30.89 "Hg10 mi
11:00 AM28 °FSunny.10 mph47%30.89 "Hg10 mi
10:30 AM27 °FSunny.13 mph50%30.89 "Hg10 mi
10:00 AM27 °FSunny.10 mph50%30.89 "Hg10 mi
9:30 AM25 °FSunny.10 mph54%30.89 "Hg10 mi
9:00 AM23 °FSunny.3 mph63%30.89 "Hg10 mi
8:30 AM19 °FSunny.3 mph68%30.89 "Hg10 mi
8:00 AM19 °FSunny.6 mph63%30.89 "Hg10 mi
7:30 AM18 °FSunny.3 mph68%30.89 "Hg10 mi
7:00 AM18 °FClear.8 mph68%30.86 "Hg10 mi
6:30 AM16 °FClear.8 mph73%30.86 "Hg10 mi
6:00 AM16 °FClear.6 mph67%30.86 "Hg10 mi
5:30 AM18 °FClear.6 mph68%30.86 "Hg10 mi
5:00 AM16 °FClear.3 mph73%30.86 "Hg10 mi
4:30 AM18 °FClear.3 mph68%30.86 "Hg10 mi
4:00 AM18 °FClear.6 mph73%30.86 "Hg10 mi
3:30 AM19 °FClear.6 mph63%30.86 "Hg10 mi
3:00 AM18 °FClear.3 mph73%30.86 "Hg10 mi
2:30 AM18 °FClear.3 mph73%30.86 "Hg10 mi
2:00 AM19 °FClear.6 mph68%30.86 "Hg10 mi
1:30 AM19 °FClear.6 mph68%30.86 "Hg10 mi
1:00 AM21 °FClear.3 mph63%30.86 "Hg10 mi
12:30 AM21 °FClear.1 mph63%30.86 "Hg10 mi
12:00 AM23 °FClear.1 mph63%30.86 "Hg10 mi
11:30 PM
Sat, Mar 28
23 °FClear.3 mph58%30.86 "Hg10 mi
11:00 PM23 °FClear.3 mph54%30.86 "Hg10 mi
10:30 PM25 °FClear.3 mph54%30.86 "Hg10 mi
10:00 PM25 °FClear.3 mph54%30.86 "Hg10 mi
9:30 PM25 °FClear.3 mph54%30.83 "Hg10 mi
9:00 PM25 °FClear.3 mph59%30.83 "Hg10 mi
Weather by CustomWeather, © 2015

See weather overviewHow to use our weather pages